Location: Peebles
(55.6412°N, 3.1714°W)
Time: 22:03:07
(UTC+00:00)

deb Agena D - Pass Details

Date: 29 September 2023
Orbit: 794 x 979 km, 99.8° (Epoch: 28 November)

Event Time Altitude Azimuth Distance (km) Brightness Sun altitude
Rises 02:43:25 0° 17° (NNE) 3,697 10.6 -32.9°
Reaches altitude 10° 02:46:03 10° 10° (N) 2,742 9.6 -32.7°
Enters shadow 02:51:03 38° 319° (NW) 1,435 7.4 -32.4°
